Time,TemperatureF,DewpointF,PressureIn,WindDirection,WindDirectionDegrees,WindSpeedMPH,WindSpeedGustMPH,Humidity,HourlyPrecipIn,Conditions,Clouds,dailyrainin,SoftwareType,DateUTC
2013-11-05 00:11:00,44.0,40.0,30.05,ESE,108,2.0,5.0,85,0.00,,,0.02,,2013-11-05 08:11:00,
2013-11-05 00:22:00,44.0,40.0,30.05,East,100,2.0,6.0,85,0.00,,,0.02,,2013-11-05 08:22:00,
2013-11-05 00:42:00,44.0,40.0,30.05,ESE,115,3.0,6.0,85,0.00,,,0.02,,2013-11-05 08:42:00,
2013-11-05 00:52:00,44.0,40.0,30.04,SE,129,3.0,4.0,85,0.00,,,0.02,,2013-11-05 08:52:00,
2013-11-05 01:11:00,44.0,40.0,30.04,SSE,150,2.0,7.0,85,0.00,,,0.02,,2013-11-05 09:11:00,
2013-11-05 01:22:00,44.0,40.0,30.04,SSE,159,1.0,3.0,85,0.01,,,0.03,,2013-11-05 09:22:00,
2013-11-05 01:43:00,44.0,40.0,30.04,SSW,201,0.0,1.0,87,0.01,,,0.03,,2013-11-05 09:43:00,
2013-11-05 01:53:00,44.0,41.0,30.04,South,176,2.0,4.0,88,0.01,,,0.03,,2013-11-05 09:53:00,
2013-11-05 02:13:00,43.0,40.0,30.04,SE,138,1.0,3.0,90,0.01,,,0.03,,2013-11-05 10:13:00,
2013-11-05 02:23:00,43.0,41.0,30.03,ESE,116,1.0,4.0,92,0.01,,,0.03,,2013-11-05 10:23:00,
2013-11-05 02:42:00,43.0,41.0,30.03,ESE,104,2.0,5.0,93,0.01,,,0.03,,2013-11-05 10:42:00,
2013-11-05 02:53:00,43.0,41.0,30.03,ESE,120,2.0,6.0,94,0.02,,,0.04,,2013-11-05 10:53:00,
2013-11-05 03:12:00,43.0,42.0,30.03,SE,133,4.0,8.0,95,0.02,,,0.04,,2013-11-05 11:12:00,
2013-11-05 03:22:00,43.0,42.0,30.03,East,98,5.0,8.0,95,0.01,,,0.04,,2013-11-05 11:22:00,
2013-11-05 03:33:00,43.0,42.0,30.03,East,98,5.0,8.0,95,0.01,,,0.04,,2013-11-05 11:33:00,
2013-11-05 03:42:00,43.0,42.0,30.03,East,98,5.0,8.0,95,0.01,,,0.04,,2013-11-05 11:42:00,
2013-11-05 03:52:00,43.0,42.0,30.04,East,88,4.0,5.0,95,0.00,,,0.04,,2013-11-05 11:52:00,
2013-11-05 04:22:00,44.0,43.0,30.03,ESE,111,4.0,7.0,96,0.01,,,0.05,,2013-11-05 12:22:00,
2013-11-05 04:31:00,44.0,43.0,30.03,ESE,111,4.0,7.0,96,0.01,,,0.05,,2013-11-05 12:31:00,
2013-11-05 04:42:00,44.0,43.0,30.03,ESE,111,4.0,7.0,96,0.01,,,0.05,,2013-11-05 12:42:00,
2013-11-05 04:52:00,44.0,43.0,30.03,SE,129,4.0,6.0,96,0.01,,,0.05,,2013-11-05 12:52:00,
2013-11-05 05:11:00,44.0,43.0,30.02,ESE,110,3.0,5.0,96,0.00,,,0.05,,2013-11-05 13:11:00,
2013-11-05 05:21:00,44.0,43.0,30.02,SE,129,2.0,5.0,96,0.00,,,0.05,,2013-11-05 13:21:00,
2013-11-05 05:42:00,44.0,43.0,30.01,ESE,121,3.0,5.0,96,0.00,,,0.05,,2013-11-05 13:42:00,
2013-11-05 05:52:00,44.0,43.0,30.01,ESE,103,3.0,5.0,95,0.00,,,0.05,,2013-11-05 13:52:00,
2013-11-05 06:11:00,44.0,43.0,30.01,East,83,3.0,5.0,95,0.00,,,0.05,,2013-11-05 14:11:00,
2013-11-05 06:22:00,44.0,43.0,30.02,East,101,1.0,4.0,95,0.00,,,0.05,,2013-11-05 14:22:00,
2013-11-05 06:42:00,44.0,43.0,30.02,ENE,68,1.0,3.0,95,0.00,,,0.05,,2013-11-05 14:42:00,
2013-11-05 06:52:00,44.0,43.0,30.02,East,91,2.0,4.0,95,0.00,,,0.05,,2013-11-05 14:52:00,
2013-11-05 07:11:00,44.0,43.0,30.01,ESE,113,3.0,6.0,95,0.00,,,0.05,,2013-11-05 15:11:00,
2013-11-05 07:21:00,44.0,43.0,30.01,SE,133,3.0,7.0,95,0.00,,,0.05,,2013-11-05 15:21:00,
2013-11-05 07:53:00,45.0,44.0,30.03,ESE,121,0.0,3.0,95,0.00,,,0.05,,2013-11-05 15:53:00,
2013-11-05 08:13:00,45.0,44.0,30.03,East,79,2.0,3.0,95,0.00,,,0.05,,2013-11-05 16:13:00,
2013-11-05 08:23:00,45.0,44.0,30.03,ESE,102,3.0,4.0,95,0.01,,,0.06,,2013-11-05 16:23:00,
2013-11-05 08:43:00,45.0,44.0,30.04,ESE,102,0.0,2.0,95,0.01,,,0.06,,2013-11-05 16:43:00,
2013-11-05 08:53:00,47.0,46.0,30.03,SW,229,4.0,8.0,97,0.01,,,0.06,,2013-11-05 16:53:00,
2013-11-05 09:12:00,47.0,46.0,30.04,SW,226,4.0,9.0,96,0.01,,,0.06,,2013-11-05 17:12:00,
2013-11-05 09:22:00,48.0,47.0,30.04,SW,233,6.0,15.0,96,0.00,,,0.06,,2013-11-05 17:22:00,
2013-11-05 09:42:00,48.0,47.0,30.04,South,171,10.0,17.0,96,0.00,,,0.06,,2013-11-05 17:42:00,
2013-11-05 09:52:00,49.0,48.0,30.04,SSW,194,7.0,16.0,96,0.00,,,0.06,,2013-11-05 17:52:00,
2013-11-05 10:12:00,49.0,48.0,30.04,SSW,201,10.0,16.0,96,0.00,,,0.06,,2013-11-05 18:12:00,
2013-11-05 10:22:00,49.0,48.0,30.04,SSW,203,8.0,16.0,96,0.01,,,0.07,,2013-11-05 18:22:00,
2013-11-05 10:52:00,50.0,49.0,30.06,West,262,8.0,17.0,95,0.01,,,0.07,,2013-11-05 18:52:00,
2013-11-05 11:11:00,51.0,49.0,30.05,SW,225,8.0,15.0,93,0.00,,,0.07,,2013-11-05 19:11:00,
2013-11-05 11:22:00,51.0,48.0,30.06,SSW,198,7.0,15.0,91,0.00,,,0.07,,2013-11-05 19:22:00,
2013-11-05 11:52:00,51.0,48.0,30.05,SSW,212,8.0,15.0,90,0.00,,,0.07,,2013-11-05 19:52:00,
2013-11-05 12:12:00,51.0,48.0,30.05,SW,217,6.0,16.0,90,0.00,,,0.07,,2013-11-05 20:12:00,
2013-11-05 12:22:00,51.0,48.0,30.05,WSW,249,7.0,15.0,88,0.00,,,0.07,,2013-11-05 20:22:00,
2013-11-05 12:42:00,52.0,48.0,30.06,SW,218,10.0,15.0,87,0.00,,,0.07,,2013-11-05 20:42:00,
2013-11-05 12:53:00,52.0,48.0,30.06,SSW,201,8.0,13.0,86,0.00,,,0.07,,2013-11-05 20:53:00,
2013-11-05 13:11:00,52.0,47.0,30.05,SSW,208,10.0,18.0,83,0.00,,,0.07,,2013-11-05 21:11:00,
2013-11-05 13:21:00,53.0,47.0,30.06,SW,215,8.0,16.0,80,0.00,,,0.07,,2013-11-05 21:21:00,
2013-11-05 13:43:00,53.0,47.0,30.06,SW,215,10.0,15.0,81,0.00,,,0.07,,2013-11-05 21:43:00,
2013-11-05 13:54:00,53.0,48.0,30.07,WSW,255,8.0,15.0,82,0.00,,,0.07,,2013-11-05 21:54:00,
2013-11-05 14:23:00,51.0,47.0,30.08,WNW,295,4.0,9.0,85,0.00,,,0.07,,2013-11-05 22:23:00,
2013-11-05 14:43:00,50.0,46.0,30.09,NW,319,3.0,5.0,85,0.00,,,0.07,,2013-11-05 22:43:00,
2013-11-05 14:53:00,50.0,47.0,30.09,WNW,293,1.0,4.0,88,0.00,,,0.07,,2013-11-05 22:53:00,
2013-11-05 15:22:00,49.0,46.0,30.10,WNW,298,3.0,5.0,91,0.00,,,0.07,,2013-11-05 23:22:00,
2013-11-05 15:42:00,48.0,45.0,30.11,NW,315,3.0,6.0,91,0.00,,,0.07,,2013-11-05 23:42:00,
2013-11-05 15:53:00,48.0,46.0,30.11,NW,314,2.0,4.0,92,0.00,,,0.07,,2013-11-05 23:53:00,
2013-11-05 16:12:00,48.0,46.0,30.11,WNW,291,0.0,2.0,92,0.00,,,0.07,,2013-11-06 00:12:00,
2013-11-05 16:21:00,48.0,46.0,30.12,WNW,294,0.0,1.0,92,0.00,,,0.07,,2013-11-06 00:21:00,
2013-11-05 16:42:00,48.0,45.0,30.12,SSW,212,1.0,2.0,91,0.00,,,0.07,,2013-11-06 00:42:00,
2013-11-05 16:52:00,48.0,45.0,30.13,East,88,1.0,2.0,91,0.00,,,0.07,,2013-11-06 00:52:00,
2013-11-05 17:11:00,48.0,45.0,30.14,NE,37,1.0,1.0,91,0.00,,,0.07,,2013-11-06 01:11:00,
2013-11-05 17:21:00,48.0,45.0,30.14,SSE,158,1.0,2.0,91,0.00,,,0.07,,2013-11-06 01:21:00,
2013-11-05 17:42:00,48.0,45.0,30.15,SW,222,0.0,0.0,91,0.00,,,0.07,,2013-11-06 01:42:00,
2013-11-05 17:52:00,48.0,45.0,30.15,SW,222,0.0,0.0,91,0.00,,,0.07,,2013-11-06 01:52:00,
2013-11-05 18:12:00,48.0,46.0,30.16,ESE,115,1.0,2.0,92,0.00,,,0.07,,2013-11-06 02:12:00,
2013-11-05 18:22:00,48.0,46.0,30.16,SSW,210,0.0,4.0,92,0.00,,,0.07,,2013-11-06 02:22:00,
2013-11-05 18:42:00,47.0,45.0,30.17,SSW,210,0.0,0.0,92,0.00,,,0.07,,2013-11-06 02:42:00,
2013-11-05 18:52:00,47.0,45.0,30.18,SSW,210,0.0,0.0,92,0.00,,,0.07,,2013-11-06 02:52:00,
2013-11-05 19:12:00,47.0,45.0,30.18,SSW,210,0.0,0.0,92,0.00,,,0.07,,2013-11-06 03:12:00,
2013-11-05 19:22:00,48.0,46.0,30.19,South,179,0.0,0.0,92,0.00,,,0.07,,2013-11-06 03:22:00,
2013-11-05 19:43:00,47.0,45.0,30.19,NE,39,0.0,1.0,93,0.00,,,0.07,,2013-11-06 03:43:00,
2013-11-05 19:54:00,47.0,45.0,30.19,ENE,63,1.0,2.0,93,0.00,,,0.07,,2013-11-06 03:54:00,
2013-11-05 20:13:00,48.0,46.0,30.20,NE,48,1.0,2.0,94,0.00,,,0.07,,2013-11-06 04:13:00,
2013-11-05 20:23:00,48.0,46.0,30.20,NE,48,1.0,2.0,94,0.00,,,0.07,,2013-11-06 04:23:00,
2013-11-05 20:43:00,47.0,45.0,30.21,ENE,57,1.0,4.0,94,0.00,,,0.07,,2013-11-06 04:43:00,
2013-11-05 20:53:00,47.0,45.0,30.21,NE,46,1.0,3.0,94,0.00,,,0.07,,2013-11-06 04:53:00,
2013-11-05 21:13:00,47.0,45.0,30.21,ENE,59,2.0,4.0,92,0.00,,,0.07,,2013-11-06 05:13:00,
2013-11-05 21:23:00,47.0,44.0,30.21,ESE,103,4.0,8.0,90,0.00,,,0.06,,2013-11-06 05:23:00,
2013-11-05 21:43:00,47.0,44.0,30.22,ESE,116,1.0,6.0,90,0.00,,,0.06,,2013-11-06 05:43:00,
2013-11-05 21:53:00,46.0,43.0,30.23,ENE,77,0.0,3.0,90,0.00,,,0.06,,2013-11-06 05:53:00,
2013-11-05 22:13:00,46.0,43.0,30.23,ENE,68,1.0,3.0,90,0.00,,,0.06,,2013-11-06 06:13:00,
2013-11-05 22:22:00,47.0,44.0,30.23,ENE,63,1.0,4.0,90,0.00,,,0.06,,2013-11-06 06:22:00,
2013-11-05 22:42:00,47.0,44.0,30.23,ESE,106,0.0,3.0,90,0.00,,,0.06,,2013-11-06 06:42:00,
2013-11-05 22:52:00,46.0,43.0,30.24,ENE,64,2.0,4.0,90,0.00,,,0.06,,2013-11-06 06:52:00,
2013-11-05 23:12:00,46.0,44.0,30.24,ENE,67,1.0,2.0,91,0.00,,,0.06,,2013-11-06 07:12:00,
2013-11-05 23:21:00,46.0,44.0,30.24,ENE,68,1.0,1.0,91,0.00,,,0.06,,2013-11-06 07:21:00,
2013-11-05 23:42:00,46.0,44.0,30.24,East,83,0.0,2.0,91,0.00,,,0.06,,2013-11-06 07:42:00,
2013-11-05 23:52:00,46.0,44.0,30.25,East,83,0.0,1.0,91,0.00,,,0.06,,2013-11-06 07:52:00,